Qianfan 05-07

operational
NORAD ID: 63165 Int'l Des: 2025-046 Owner: YUANX Country: CN Constellation: qianfan
LEOCIRCULARPOLAR

关于 Qianfan 05-07

正在加载描述...

实时位置

正在加载3D地球...

即将过境

高度历史

Altitude vs Time

uPlot chart will show altitude changes over time

两行轨道根数

1 63165U 25046G 25350.93797589 .00000133 00000-0 18769-3 0 9991
2 63165 88.9767 319.6625 0016370 111.9627 248.3266 13.50980121 47949
Epoch: Dec 16, 2025 • Age: 8 hours

当前状态

高度 1107.8 km
速度 7.29 km/s
星下点 -82.10°S, 42.89°W
发射日期 Mar 11, 2025
运行时间 0.7 years
类型 internet

技术详情

分类 Payload
质量 267.00 kg
干质量 267.00 kg
总质量 267.00 kg
长度 0.30 m
直径 3.00 m
跨度 10.00 m
形状 Box+pan
制造商 GESIH
平台类型 Qianfan
阶段状态 In Orbit
所有者/国家 YUANX/CN

大型星座

Loading constellations...